Location: Unspecified
(0.0000°N, 0.0000°E)
Time: 14:52:24
(UTC+00:00)

Vanguard 1 - All Passes

Search period start: 27 July 2017 00:00
Search period end: 06 August 2017 00:00
Orbit: 652 x 3832 km, 34.3° (Epoch: 26 July)

Date Brightness Start Highest point End Pass type
(mag) Time Alt. Az. Time Alt. Az. Time Alt. Az.
27 Jul - 01:05:40 10° NW 01:19:04 20° N 01:34:02 10° NE visible
27 Jul - 03:36:03 10° NNW 03:54:03 26° NNE 04:08:38 10° ENE visible
27 Jul - 06:03:06 10° NW 06:23:36 55° NNE 06:35:32 10° ESE daylight
27 Jul - 08:31:46 10° WNW 08:47:23 55° SW 08:55:48 10° SE daylight
27 Jul - 18:14:19 10° SSW 18:20:17 39° SE 18:30:23 10° ENE visible
27 Jul - 20:33:26 10° WSW 20:42:06 55° NNW 20:58:14 10° NE visible
27 Jul - 22:58:14 10° WNW 23:09:28 25° NNW 23:25:20 10° NNE visible
28 Jul - 01:29:15 10° NW 01:43:15 20° N 01:58:03 10° NE visible
28 Jul - 03:57:48 10° NNW 04:17:16 32° NNE 04:32:05 10° E visible
28 Jul - 06:24:42 10° NW 06:45:30 69° NE 06:57:06 10° ESE daylight
28 Jul - 08:54:39 10° WNW 09:08:21 39° SW 09:16:16 10° SSE daylight
28 Jul - 18:34:49 10° SW 18:41:10 60° SE 18:52:48 10° ENE visible
28 Jul - 20:55:08 10° W 21:04:02 41° NNW 21:19:38 10° NE visible
28 Jul - 23:21:39 10° NW 23:32:44 21° N 23:47:25 10° NNE visible
29 Jul - 01:52:12 10° NNW 02:07:22 21° N 02:22:37 10° NE visible
29 Jul - 04:19:19 10° NW 04:40:07 39° NNE 04:54:58 10° E visible
29 Jul - 06:46:29 10° NW 07:07:08 87° NE 07:18:21 10° SE daylight
29 Jul - 09:18:12 10° W 09:29:20 27° SW 09:36:25 10° SSE daylight
29 Jul - 16:40:06 10° SSE 16:42:10 12° SE 16:44:30 10° ESE daylight
29 Jul - 18:55:37 10° SW 19:02:14 88° SE 19:14:46 10° NE visible
29 Jul - 21:17:15 10° W 21:26:15 32° NNW 21:40:57 10° NE visible
29 Jul - 23:45:19 10° NW 23:56:21 19° N 00:10:11 10° NE visible
30 Jul - 02:14:30 10° NNW 02:31:15 24° NNE 02:47:11 10° ENE visible
30 Jul - 04:40:45 10° NW 05:02:38 48° NNE 05:17:22 10° E visible
30 Jul - 07:08:34 10° WNW 07:28:31 74° SW 07:39:20 10° SE daylight
30 Jul - 09:42:41 10° W 09:50:28 18° SW 09:56:05 10° S daylight
30 Jul - 16:58:58 10° S 17:03:06 21° SE 17:08:46 10° E daylight
30 Jul - 19:16:43 10° WSW 19:23:33 65° NNW 19:36:25 10° NE visible
30 Jul - 21:39:49 10° WNW 21:48:45 25° NNW 22:02:19 10° NNE visible
31 Jul - 00:08:51 10° NW 00:20:15 18° N 00:33:53 10° NE visible
31 Jul - 02:36:19 10° NNW 02:54:46 28° NNE 03:11:22 10° ENE visible
31 Jul - 05:02:13 10° NW 05:24:51 60° NNE 05:39:19 10° ESE visible
31 Jul - 07:31:03 10° WNW 07:49:43 56° SW 08:00:05 10° SE daylight
31 Jul - 10:09:20 10° SW 10:11:50 11° SW 10:14:04 10° SSW daylight
31 Jul - 17:19:01 10° SSW 17:23:56 36° SE 17:31:37 10° ENE daylight
31 Jul - 19:38:09 10° W 19:45:08 46° NNW 19:57:46 10° NE visible
31 Jul - 22:02:52 10° NW 22:11:34 20° NNW 22:23:53 10° NNE visible
01 Aug - 00:31:52 10° NNW 00:44:16 19° N 00:58:30 10° NE visible
01 Aug - 02:57:50 10° NNW 03:17:54 34° NNE 03:34:59 10° E visible
01 Aug - 05:23:47 10° NW 05:46:48 74° NE 06:00:55 10° ESE visible
01 Aug - 07:54:03 10° WNW 08:10:50 42° SW 08:20:37 10° SSE daylight
01 Aug - 17:39:30 10° SW 17:44:49 60° SE 17:53:48 10° ENE daylight
01 Aug - 19:59:57 10° W 20:07:01 33° NNW 20:18:57 10° NE visible
01 Aug - 22:26:18 10° NW 22:34:43 17° N 22:45:53 10° NNE visible
02 Aug - 00:54:14 10° NNW 01:08:12 21° NNE 01:23:39 10° ENE visible
02 Aug - 03:19:11 10° NW 03:40:41 42° NNE 03:58:01 10° E visible
02 Aug - 05:45:34 10° NW 06:08:29 90° NNE 06:22:12 10° SE visible
02 Aug - 08:17:42 10° W 08:31:59 30° SW 08:40:55 10° SSE daylight
02 Aug - 18:00:21 10° SW 18:05:51 85° NW 18:15:32 10° NE daylight
02 Aug - 20:22:12 10° WNW 20:29:09 25° NNW 20:40:00 10° NNE visible
02 Aug - 22:49:49 10° NNW 22:58:10 16° N 23:08:44 10° NNE visible
03 Aug - 01:16:03 10° NNW 01:31:53 24° NNE 01:48:42 10° ENE visible
03 Aug - 03:40:29 10° NW 04:03:09 51° NNE 04:20:30 10° ESE visible
03 Aug - 06:07:39 10° WNW 06:29:59 73° SW 06:43:13 10° SE daylight
03 Aug - 08:42:13 10° W 08:53:17 22° SW 09:00:52 10° S daylight
03 Aug - 16:03:36 10° S 16:06:59 19° SE 16:11:08 10° E daylight
03 Aug - 18:21:32 10° WSW 18:27:09 54° NNW 18:36:55 10° NE visible
03 Aug - 20:44:59 10° WNW 20:51:34 19° NNW 21:01:01 10° NNE visible
03 Aug - 23:12:58 10° NNW 23:21:51 16° N 23:32:47 10° NE visible
04 Aug - 01:37:30 10° NNW 01:55:12 29° NNE 02:13:14 10° ENE visible
04 Aug - 04:01:51 10° NW 04:25:20 63° NE 04:42:32 10° ESE visible
04 Aug - 06:30:08 10° WNW 06:51:20 58° SW 07:04:02 10° SE daylight
04 Aug - 09:07:58 10° WSW 09:14:50 15° SW 09:20:12 10° S daylight
04 Aug - 16:23:37 10° SSW 16:27:53 34° SE 16:33:46 10° ENE daylight
04 Aug - 18:43:05 10° W 18:48:42 36° NNW 18:58:01 10° NE visible
04 Aug - 21:08:18 10° NW 21:14:16 15° N 21:22:09 10° NNE visible
04 Aug - 23:35:23 10° NNW 23:45:36 17° NNE 23:58:00 10° NE visible
05 Aug - 01:58:44 10° NNW 02:18:09 35° NNE 02:37:06 10° E visible
05 Aug - 04:23:20 10° NW 04:47:17 77° NE 05:04:11 10° ESE visible
05 Aug - 06:53:09 10° WNW 07:12:38 44° SW 07:24:39 10° SSE daylight
05 Aug - 16:44:09 10° SW 16:48:48 63° SE 16:55:43 10° ENE daylight
05 Aug - 19:05:04 10° WNW 19:10:31 25° NNW 19:18:51 10° NNE visible
05 Aug - 21:32:03 10° NNW 21:37:15 13° N 21:43:40 10° NNE visible
